9330 Limonite Avenue Riverside, CA 92509
Phone: 951.685.7034

Paradise Knolls Golf Course

LOWEST AVAILABLE RATE
$14.97
View ScorecardTotal Holes: 18

Paradise Knolls Golf Course

Paradise Knolls Golf Course, located east of Los Angeles in Riverside, CA is a 6,281 yard 18 hole course with a slope rating of 116. It is a wonderful walking golf course and a great option for beginners and amateurs. The length of the course is made interesting with plenty of drivable Par 4’s mixed in with challenging holes such as the 230 yard Par 3 12th, which caters toward lower handicappers. The golf course’s small, quick greens will keep golfers honest and require precision and patience. Renovations have been made to the 15th green as well as updates made to the club house. Located in the heart of Riverside since 1964, access to the course is easy, just off the 15 freeway.

 

Book your tee time online today through Golfzing for the cheapest rates. For information regarding events, lessons or tournaments, follow the links provided or contact the golf course for more details.

Amenities
Pro ShopRental ClubsPull Cart
RestaurantBar & GrillSnack Bar
Putting Green(s)Cart Rental 
Format: 2016-02-14
You don't have Javascript enabled. Hover for more information! But don't worry: you can still use this web site! You have two options:
  • enable Javascript in your browser and then refresh this page, for a much enhanced experience.
  • click the Update button every time you want to update the selection.

There are no upcoming events at this golf course.

Format: 2016-02-14

$24.97 Hot Dog Special

Location:Paradise Knolls Golf Course - Riverside, CA
Date: Tuesday May 5th, 2015
Details:

$28.97 Hot Dog Special

Location:Paradise Knolls Golf Course - Riverside, CA
Date: Saturday May 9th, 2015
Details:

Weekend Golf and BBQ

Location:Paradise Knolls Golf Course - Riverside, CA
Date: Saturday August 29th, 2015
Details:
 
Feel Like: 60.6 °F Last Updated: Sunday February 14, 2016 8:08 AM
 Temperature: 60.6 °F
 Sunrise: 6:35 am 
 Sunset: 5:32 pm 
 Dewpoint: 38.2 °F
 Relative Humidity: 43.3
 Wind: 86 at 3.1 mph
 Barometer: 30.08 in and holding steady

Today Mon, 2/15 Tue, 2/16 Wed, 2/17 Thu, 2/18 Fri, 2/19 Sat, 2/20
High: 84
Low: 58
High: 88
Low: 57
High: 79
Low: 56
High: 73
Low: 53
High: 75
Low: 50
High: 79
Low: 49
High: 87
Low: 54
Mostly sunny. Highs 83 to 88. Areas of winds north 15 to 25 mph. Gusts to 30 mph
Mostly sunny. Areas of blowing dust in the morning. Local visibility one quarter mile or less at times in the morning. Highs 83 to 88. Areas of winds north 20 to 30 mph. Gusts to 40 mph...Becoming 35 mph in the afternoon
Mostly sunny. Highs 84 to 89. Areas of winds north 15 mph. Gusts to 25 mph in the morning
Mostly sunny in the morning...Becoming partly cloudy. Highs 76 to 81
Partly cloudy with a chance of showers. Highs 70 to 75
Partly cloudy. Highs around 73
Partly cloudy. Highs around 78
Powered by WeatherBug

Fill in the form below.

9330 Limonite Avenue Riverside, CA 92509
Enter the address, postcode and/or city from where you want to start your journey.
Jeff Walser
Randy Wire
Brian Tinney
Ralph Adame
hammer01
Paul Litner
Randy Burtt
Phil Davis
Scott Kumamoto
Carlos Roman
Rolfie De La Torre
Allen Butler
Big Dogg Vi
Jim Mumy
bobcentury
William Devine
Book a Tee Time
Options
Ride
Walk
ZINGTIMES!
Search

Time
Players
Details
Price
Info
 

9:30 AM
18 holes Cart Included
$29.97$39.00
5,994 ZINGPOINTS!

9:52 AM
18 holes Cart Included
$29.97$39.00
5,994 ZINGPOINTS!

9:59 AM
18 holes Cart Included
$29.97$39.00
5,994 ZINGPOINTS!

10:22 AM
18 holes Cart Included
$29.97$39.00
5,994 ZINGPOINTS!

10:37 AM
18 holes Cart Included
$27.97$39.00
5,594 ZINGPOINTS!

10:45 AM
18 holes Cart Included
$27.97$39.00
5,594 ZINGPOINTS!

10:59 AM
18 holes Cart Included
$22.97$39.00
4,594 ZINGPOINTS!

11:00 AM
18 holes Cart Included
$23.97$29.00
4,195 ZINGPOINTS!

11:07 AM
18 holes Cart Included
$23.97$29.00
4,195 ZINGPOINTS!

11:15 AM
18 holes Cart Included
$23.97$29.00
4,195 ZINGPOINTS!

11:30 AM
18 holes Cart Included
$21.97$29.00
3,845 ZINGPOINTS!

11:37 AM
18 holes Cart Included
$21.97$29.00
3,845 ZINGPOINTS!

11:45 AM
18 holes Cart Included
$29.00
5,075 ZINGPOINTS!

12:00 PM
18 holes Cart Included
$21.97$29.00
4,394 ZINGPOINTS!

12:07 PM
18 holes Cart Included
$21.97$29.00
4,394 ZINGPOINTS!

12:15 PM
18 holes Cart Included
$21.97$29.00
4,394 ZINGPOINTS!

12:22 PM
18 holes Cart Included
$21.97$29.00
4,394 ZINGPOINTS!

12:52 PM
18 holes Cart Included
$21.97$29.00
4,394 ZINGPOINTS!

1:00 PM
18 holes Cart Included
$21.97$29.00
3,845 ZINGPOINTS!

1:07 PM
18 holes Cart Included
$21.97$29.00
3,845 ZINGPOINTS!

1:15 PM
18 holes Cart Included
$21.97$29.00
3,845 ZINGPOINTS!

1:22 PM
18 holes Cart Included
$21.97$29.00
3,845 ZINGPOINTS!

1:30 PM
18 holes Cart Included
$21.97$29.00
3,845 ZINGPOINTS!

1:37 PM
18 holes Cart Included
$16.97$29.00
2,970 ZINGPOINTS!

1:45 PM
18 holes Cart Included
$29.00
5,075 ZINGPOINTS!

2:00 PM
18 holes Cart Included
$16.97$19.00
3,394 ZINGPOINTS!

2:07 PM
18 holes Cart Included
$16.97$19.00
3,394 ZINGPOINTS!

2:15 PM
18 holes Cart Included
$16.97$19.00
3,394 ZINGPOINTS!

2:22 PM
18 holes Cart Included
$14.97$19.00
2,994 ZINGPOINTS!

2:30 PM
18 holes Cart Included
$14.97$19.00
2,994 ZINGPOINTS!

2:37 PM
18 holes Cart Included
$14.97$19.00
2,994 ZINGPOINTS!

2:45 PM
18 holes Cart Included
$19.00
3,800 ZINGPOINTS!

3:00 PM
18 holes Cart Included
$14.97$19.00
2,246 ZINGPOINTS!

3:07 PM
18 holes Cart Included
$14.97$19.00
2,246 ZINGPOINTS!

3:15 PM
18 holes Cart Included
$14.97$19.00
2,246 ZINGPOINTS!

3:22 PM
18 holes Cart Included
$14.97$19.00
2,246 ZINGPOINTS!

3:30 PM
18 holes Cart Included
$14.97$19.00
2,246 ZINGPOINTS!

3:37 PM
18 holes Cart Included
$14.97$19.00
2,246 ZINGPOINTS!

3:45 PM
18 holes Cart Included
$19.00
2,850 ZINGPOINTS!

4:00 PM
18 holes Cart Included
$14.97$19.00
2,620 ZINGPOINTS!

4:07 PM
18 holes Cart Included
$14.97$19.00
2,620 ZINGPOINTS!

4:15 PM
18 holes Cart Included
$14.97$19.00
2,620 ZINGPOINTS!

4:22 PM
18 holes Cart Included
$14.97$19.00
2,620 ZINGPOINTS!

4:30 PM
18 holes Cart Included
$14.97$19.00
2,620 ZINGPOINTS!

4:37 PM
18 holes Cart Included
$14.97$19.00
2,620 ZINGPOINTS!

4:45 PM
18 holes Cart Included
$19.00
3,325 ZINGPOINTS!

5:00 PM
18 holes Cart Included
$19.00
2,850 ZINGPOINTS!

5:07 PM
18 holes Cart Included
$19.00
2,850 ZINGPOINTS!

5:15 PM
18 holes Cart Included
$19.00
2,850 ZINGPOINTS!

5:22 PM
18 holes Cart Included
$19.00
2,850 ZINGPOINTS!

5:30 PM
18 holes Cart Included
$19.00
2,850 ZINGPOINTS!

5:37 PM
18 holes Cart Included
$19.00
2,850 ZINGPOINTS!

5:59 PM
18 holes Cart Included
$19.00
2,850 ZINGPOINTS!

Tee Times and Golf Course Discounts